Location: Bieg
(49.3499°N, 10.3835°E)
Time: 23:51:07
(UTC+00:00)

NOSS 3-4 (C) - Pass Details

Date: 23 May 2024
Orbit: 814 x 1397 km, 63.4° (Epoch: 04 June)

Event Time Altitude Azimuth Distance (km) Brightness Sun altitude
Rises 00:34:06 0° 314° (NW) 3,795 6.9 -17.8°
Reaches altitude 10° 00:36:44 10° 307° (NW) 2,922 6.2 -17.7°
Maximum altitude 00:43:09 40° 241° (WSW) 1,672 4.3 -17.3°
Enters shadow 00:47:18 23° 189° (S) 2,364 4.9 -17.1°
